Time,TemperatureF,DewpointF,PressureIn,WindDirection,WindDirectionDegrees,WindSpeedMPH,WindSpeedGustMPH,Humidity,HourlyPrecipIn,Conditions,Clouds,dailyrainin,SoftwareType,DateUTC
2013-01-04 00:03:00,17.5,10.6,30.30,NW,307,13.3,16.1,74,0.00,CLR,,0.00,WeatherDisplay:10.37,2013-01-04 06:03:00,
2013-01-04 00:08:00,17.3,10.4,30.30,NW,317,8.9,15.0,74,0.00,CLR,,0.00,WeatherDisplay:10.37,2013-01-04 06:08:00,
2013-01-04 00:13:00,17.0,9.5,30.30,NNW,328,10.0,16.1,72,0.00,CLR,,0.00,WeatherDisplay:10.37,2013-01-04 06:13:00,
2013-01-04 00:18:00,16.9,9.4,30.30,NNW,341,10.2,13.8,72,0.00,CLR,,0.00,WeatherDisplay:10.37,2013-01-04 06:18:00,
2013-01-04 00:23:00,16.7,8.9,30.30,NW,310,9.9,13.8,71,0.00,CLR,,0.00,WeatherDisplay:10.37,2013-01-04 06:23:00,
2013-01-04 00:28:00,16.5,8.7,30.30,NW,322,5.9,11.5,71,0.00,CLR,,0.00,WeatherDisplay:10.37,2013-01-04 06:28:00,
2013-01-04 00:33:00,16.5,8.7,30.30,NW,307,7.4,11.5,71,0.00,CLR,,0.00,WeatherDisplay:10.37,2013-01-04 06:33:00,
2013-01-04 00:38:00,16.4,8.3,30.30,NW,309,8.2,13.0,70,0.00,CLR,,0.00,WeatherDisplay:10.37,2013-01-04 06:38:00,
2013-01-04 00:43:00,16.4,8.3,30.30,NNW,341,9.8,15.0,70,0.00,CLR,,0.00,WeatherDisplay:10.37,2013-01-04 06:43:00,
2013-01-04 00:48:00,16.4,8.3,30.30,NW,309,9.0,12.7,70,0.00,CLR,,0.00,WeatherDisplay:10.37,2013-01-04 06:48:00,
2013-01-04 00:53:00,16.2,8.1,30.30,NW,309,9.0,13.0,70,0.00,CLR,,0.00,WeatherDisplay:10.37,2013-01-04 06:53:00,
2013-01-04 00:58:00,16.1,8.0,30.30,NW,314,6.8,11.5,70,0.00,CLR,,0.00,WeatherDisplay:10.37,2013-01-04 06:58:00,
2013-01-04 01:03:00,15.9,8.2,30.29,NW,309,10.0,11.5,71,0.00,CLR,,0.00,WeatherDisplay:10.37,2013-01-04 07:03:00,
2013-01-04 01:08:00,15.9,8.2,30.29,NW,313,10.3,10.4,71,0.00,CLR,,0.00,WeatherDisplay:10.37,2013-01-04 07:08:00,
2013-01-04 01:13:00,15.9,7.8,30.29,NW,316,3.9,10.4,70,0.00,CLR,,0.00,WeatherDisplay:10.37,2013-01-04 07:13:00,
2013-01-04 01:18:00,15.7,8.0,30.29,NW,307,7.6,10.4,71,0.00,CLR,,0.00,WeatherDisplay:10.37,2013-01-04 07:18:00,
2013-01-04 01:23:00,15.7,8.0,30.29,NW,310,6.1,9.2,71,0.00,CLR,,0.00,WeatherDisplay:10.37,2013-01-04 07:23:00,
2013-01-04 01:28:00,15.7,8.0,30.29,WNW,303,5.1,6.9,71,0.00,CLR,,0.00,WeatherDisplay:10.37,2013-01-04 07:28:00,
2013-01-04 01:33:00,15.7,8.3,30.29,WNW,293,7.8,11.5,72,0.00,CLR,,0.00,WeatherDisplay:10.37,2013-01-04 07:33:00,
2013-01-04 01:38:00,15.7,8.3,30.29,NW,306,6.2,10.4,72,0.00,CLR,,0.00,WeatherDisplay:10.37,2013-01-04 07:38:00,
2013-01-04 01:43:00,15.7,8.3,30.29,WNW,301,5.8,11.5,72,0.00,CLR,,0.00,WeatherDisplay:10.37,2013-01-04 07:43:00,
2013-01-04 01:48:00,15.7,8.3,30.29,WNW,284,5.4,5.8,72,0.00,CLR,,0.00,WeatherDisplay:10.37,2013-01-04 07:48:00,
2013-01-04 01:53:00,15.7,8.3,30.29,WNW,300,5.7,5.8,72,0.00,CLR,,0.00,WeatherDisplay:10.37,2013-01-04 07:53:00,
2013-01-04 01:58:00,15.6,8.2,30.29,NW,309,6.6,6.6,72,0.00,CLR,,0.00,WeatherDisplay:10.37,2013-01-04 07:58:00,
2013-01-04 02:03:00,15.7,8.3,30.29,NW,306,9.6,10.4,72,0.00,CLR,,0.00,WeatherDisplay:10.37,2013-01-04 08:03:00,
2013-01-04 02:08:00,15.9,8.5,30.29,NW,308,6.1,16.1,72,0.00,CLR,,0.00,WeatherDisplay:10.37,2013-01-04 08:08:00,
2013-01-04 02:13:00,15.9,8.2,30.29,West,277,8.1,10.4,71,0.00,CLR,,0.00,WeatherDisplay:10.37,2013-01-04 08:13:00,
2013-01-04 02:18:00,15.6,7.9,30.29,WNW,282,8.7,11.5,71,0.00,CLR,,0.00,WeatherDisplay:10.37,2013-01-04 08:18:00,
2013-01-04 02:23:00,15.7,8.3,30.29,West,271,8.6,9.2,72,0.00,CLR,,0.00,WeatherDisplay:10.37,2013-01-04 08:23:00,
2013-01-04 02:28:00,15.7,8.6,30.29,WNW,291,6.4,12.0,73,0.00,CLR,,0.00,WeatherDisplay:10.37,2013-01-04 08:28:00,
2013-01-04 02:33:00,15.4,8.3,30.28,NW,306,11.1,16.1,73,0.00,CLR,,0.00,WeatherDisplay:10.37,2013-01-04 08:33:00,
2013-01-04 02:38:00,15.4,8.3,30.28,NW,313,9.2,10.4,73,0.00,CLR,,0.00,WeatherDisplay:10.37,2013-01-04 08:38:00,
2013-01-04 02:43:00,15.2,8.1,30.28,NW,315,6.2,11.5,73,0.00,CLR,,0.00,WeatherDisplay:10.37,2013-01-04 08:43:00,
2013-01-04 02:48:00,15.1,8.0,30.29,NW,307,6.7,11.5,73,0.00,CLR,,0.00,WeatherDisplay:10.37,2013-01-04 08:48:00,
2013-01-04 02:53:00,14.9,7.8,30.29,NW,309,6.7,9.0,73,0.00,CLR,,0.00,WeatherDisplay:10.37,2013-01-04 08:53:00,
2013-01-04 02:58:00,14.9,7.8,30.29,NW,308,6.3,10.4,73,0.00,CLR,,0.00,WeatherDisplay:10.37,2013-01-04 08:58:00,
2013-01-04 03:03:00,14.8,7.7,30.29,NW,304,8.4,10.4,73,0.00,CLR,,0.00,WeatherDisplay:10.37,2013-01-04 09:03:00,
2013-01-04 03:08:00,14.9,7.8,30.29,WNW,288,6.5,6.9,73,0.00,CLR,,0.00,WeatherDisplay:10.37,2013-01-04 09:08:00,
2013-01-04 03:13:00,14.6,7.5,30.29,West,278,11.0,13.8,73,0.00,CLR,,0.00,WeatherDisplay:10.37,2013-01-04 09:13:00,
2013-01-04 03:18:00,14.4,7.6,30.29,WNW,284,12.6,16.1,74,0.00,CLR,,0.00,WeatherDisplay:10.37,2013-01-04 09:18:00,
2013-01-04 03:23:00,14.6,7.8,30.29,West,279,9.0,11.5,74,0.00,CLR,,0.00,WeatherDisplay:10.37,2013-01-04 09:23:00,
2013-01-04 03:28:00,14.6,7.8,30.29,NW,309,9.1,12.7,74,0.00,CLR,,0.00,WeatherDisplay:10.37,2013-01-04 09:28:00,
2013-01-04 03:33:00,14.6,8.1,30.29,WNW,284,8.2,13.8,75,0.00,CLR,,0.00,WeatherDisplay:10.37,2013-01-04 09:33:00,
2013-01-04 03:38:00,14.6,8.1,30.29,NW,309,8.6,11.5,75,0.00,CLR,,0.00,WeatherDisplay:10.37,2013-01-04 09:38:00,
2013-01-04 03:43:00,14.4,7.9,30.29,NW,309,5.0,10.0,75,0.00,CLR,,0.00,WeatherDisplay:10.37,2013-01-04 09:43:00,
2013-01-04 03:48:00,14.4,7.9,30.29,WNW,303,7.2,9.2,75,0.00,CLR,,0.00,WeatherDisplay:10.37,2013-01-04 09:48:00,
2013-01-04 03:53:00,14.4,7.9,30.29,NW,309,5.6,6.9,75,0.00,CLR,,0.00,WeatherDisplay:10.37,2013-01-04 09:53:00,
2013-01-04 03:58:00,14.4,7.9,30.29,NW,316,8.2,11.5,75,0.00,CLR,,0.00,WeatherDisplay:10.37,2013-01-04 09:58:00,
2013-01-04 04:03:00,14.4,7.9,30.28,WNW,285,10.1,11.5,75,0.00,CLR,,0.00,WeatherDisplay:10.37,2013-01-04 10:03:00,
2013-01-04 04:08:00,14.1,7.3,30.28,WNW,301,12.1,13.8,74,0.00,CLR,,0.00,WeatherDisplay:10.37,2013-01-04 10:08:00,
2013-01-04 04:13:00,14.0,7.2,30.28,NW,304,7.4,11.5,74,0.00,CLR,,0.00,WeatherDisplay:10.37,2013-01-04 10:13:00,
2013-01-04 04:18:00,14.0,7.2,30.29,WNW,298,8.8,10.4,74,0.00,CLR,,0.00,WeatherDisplay:10.37,2013-01-04 10:18:00,
2013-01-04 04:23:00,14.0,7.2,30.29,WNW,296,9.7,11.5,74,0.00,CLR,,0.00,WeatherDisplay:10.37,2013-01-04 10:23:00,
2013-01-04 04:28:00,13.8,7.0,30.29,WNW,289,7.5,10.4,74,0.00,CLR,,0.00,WeatherDisplay:10.37,2013-01-04 10:28:00,
2013-01-04 04:33:00,13.8,7.0,30.28,WNW,288,6.8,11.5,74,0.00,CLR,,0.00,WeatherDisplay:10.37,2013-01-04 10:33:00,
2013-01-04 04:38:00,14.0,7.2,30.28,West,277,9.8,13.0,74,0.00,CLR,,0.00,WeatherDisplay:10.37,2013-01-04 10:38:00,
2013-01-04 04:43:00,14.0,7.5,30.28,WNW,303,5.8,11.5,75,0.00,CLR,,0.00,WeatherDisplay:10.37,2013-01-04 10:43:00,
2013-01-04 04:48:00,14.1,7.6,30.28,NW,307,5.6,6.9,75,0.00,CLR,,0.00,WeatherDisplay:10.37,2013-01-04 10:48:00,
2013-01-04 04:53:00,14.3,7.8,30.28,WSW,244,5.5,12.0,75,0.00,CLR,,0.00,WeatherDisplay:10.37,2013-01-04 10:53:00,
2013-01-04 04:58:00,14.1,7.6,30.28,West,261,6.6,6.9,75,0.00,CLR,,0.00,WeatherDisplay:10.37,2013-01-04 10:58:00,
2013-01-04 05:03:00,14.0,7.5,30.28,West,263,7.5,10.4,75,0.00,CLR,,0.00,WeatherDisplay:10.37,2013-01-04 11:03:00,
2013-01-04 05:08:00,13.8,7.3,30.28,West,277,6.1,7.0,75,0.00,CLR,,0.00,WeatherDisplay:10.37,2013-01-04 11:08:00,
2013-01-04 05:13:00,14.0,7.8,30.28,WNW,287,8.5,10.4,76,0.00,CLR,,0.00,WeatherDisplay:10.37,2013-01-04 11:13:00,
2013-01-04 05:18:00,14.3,8.1,30.28,WNW,291,4.3,4.6,76,0.00,CLR,,0.00,WeatherDisplay:10.37,2013-01-04 11:18:00,
2013-01-04 05:23:00,14.3,8.1,30.28,West,276,4.8,5.8,76,0.00,CLR,,0.00,WeatherDisplay:10.37,2013-01-04 11:23:00,
2013-01-04 05:28:00,14.3,8.1,30.28,West,267,8.5,10.4,76,0.00,CLR,,0.00,WeatherDisplay:10.37,2013-01-04 11:28:00,
2013-01-04 05:33:00,14.1,7.9,30.28,WNW,299,6.8,9.2,76,0.00,CLR,,0.00,WeatherDisplay:10.37,2013-01-04 11:33:00,
2013-01-04 05:38:00,14.0,7.8,30.28,West,263,7.2,10.4,76,0.00,CLR,,0.00,WeatherDisplay:10.37,2013-01-04 11:38:00,
2013-01-04 05:43:00,14.0,7.8,30.28,West,262,9.4,11.5,76,0.00,CLR,,0.00,WeatherDisplay:10.37,2013-01-04 11:43:00,
2013-01-04 05:48:00,13.8,7.3,30.28,West,270,12.1,12.7,75,0.00,CLR,,0.00,WeatherDisplay:10.37,2013-01-04 11:48:00,
2013-01-04 05:53:00,13.6,7.1,30.28,West,265,10.2,12.7,75,0.00,CLR,,0.00,WeatherDisplay:10.37,2013-01-04 11:53:00,
2013-01-04 05:58:00,13.6,7.1,30.28,West,269,7.0,9.2,75,0.00,CLR,,0.00,WeatherDisplay:10.37,2013-01-04 11:58:00,
2013-01-04 06:03:00,13.8,7.6,30.28,West,275,6.7,9.2,76,0.00,CLR,,0.00,WeatherDisplay:10.37,2013-01-04 12:03:00,
2013-01-04 06:08:00,14.1,7.9,30.28,West,275,10.3,13.8,76,0.00,CLR,,0.00,WeatherDisplay:10.37,2013-01-04 12:08:00,
2013-01-04 06:13:00,14.3,8.1,30.28,West,270,9.0,16.1,76,0.00,CLR,,0.00,WeatherDisplay:10.37,2013-01-04 12:13:00,
2013-01-04 06:18:00,14.3,8.1,30.28,West,279,8.5,11.5,76,0.00,CLR,,0.00,WeatherDisplay:10.37,2013-01-04 12:18:00,
2013-01-04 06:23:00,14.4,8.2,30.28,West,265,7.3,7.3,76,0.00,CLR,,0.00,WeatherDisplay:10.37,2013-01-04 12:23:00,
2013-01-04 06:28:00,14.4,8.2,30.28,West,277,9.9,13.8,76,0.00,CLR,,0.00,WeatherDisplay:10.37,2013-01-04 12:28:00,
2013-01-04 06:33:00,14.4,8.2,30.27,West,275,8.2,11.5,76,0.00,CLR,,0.00,WeatherDisplay:10.37,2013-01-04 12:33:00,
2013-01-04 06:38:00,14.4,8.2,30.27,WSW,257,8.1,11.5,76,0.00,CLR,,0.00,WeatherDisplay:10.37,2013-01-04 12:38:00,
2013-01-04 06:43:00,14.4,8.2,30.27,West,274,5.7,5.8,76,0.00,CLR,,0.00,WeatherDisplay:10.37,2013-01-04 12:43:00,
2013-01-04 06:48:00,14.4,8.2,30.27,WNW,298,8.7,10.4,76,0.00,CLR,,0.00,WeatherDisplay:10.37,2013-01-04 12:48:00,
2013-01-04 06:53:00,14.6,8.4,30.27,West,281,10.6,12.7,76,0.00,CLR,,0.00,WeatherDisplay:10.37,2013-01-04 12:53:00,
2013-01-04 06:58:00,14.8,8.6,30.27,NW,307,6.6,10.4,76,0.00,CLR,,0.00,WeatherDisplay:10.37,2013-01-04 12:58:00,
2013-01-04 07:03:00,15.1,9.2,30.27,WNW,288,10.4,12.7,77,0.00,CLR,,0.00,WeatherDisplay:10.37,2013-01-04 13:03:00,
2013-01-04 07:08:00,15.2,9.0,30.27,NW,309,12.8,16.1,76,0.00,CLR,,0.00,WeatherDisplay:10.37,2013-01-04 13:08:00,
2013-01-04 07:13:00,15.1,8.9,30.27,West,277,6.7,12.7,76,0.00,CLR,,0.00,WeatherDisplay:10.37,2013-01-04 13:13:00,
2013-01-04 07:18:00,15.2,9.0,30.27,West,269,8.6,11.5,76,0.00,CLR,,0.00,WeatherDisplay:10.37,2013-01-04 13:18:00,
2013-01-04 07:23:00,15.2,9.0,30.27,WSW,239,11.6,13.8,76,0.00,CLR,,0.00,WeatherDisplay:10.37,2013-01-04 13:23:00,
2013-01-04 07:28:00,15.4,9.5,30.27,West,268,5.7,6.9,77,0.00,CLR,,0.00,WeatherDisplay:10.37,2013-01-04 13:28:00,
2013-01-04 07:33:00,15.9,10.0,30.27,WSW,258,9.4,12.7,77,0.00,CLR,,0.00,WeatherDisplay:10.37,2013-01-04 13:33:00,
2013-01-04 07:38:00,16.2,10.3,30.27,WNW,297,6.9,9.2,77,0.00,CLR,,0.00,WeatherDisplay:10.37,2013-01-04 13:38:00,
2013-01-04 07:43:00,16.4,10.2,30.27,WNW,291,10.6,15.0,76,0.00,CLR,,0.00,WeatherDisplay:10.37,2013-01-04 13:43:00,
2013-01-04 07:48:00,16.7,10.4,30.26,West,271,9.8,11.5,76,0.00,CLR,,0.00,WeatherDisplay:10.37,2013-01-04 13:48:00,
2013-01-04 07:53:00,16.9,10.6,30.26,West,268,9.6,12.7,76,0.00,CLR,,0.00,WeatherDisplay:10.37,2013-01-04 13:53:00,
2013-01-04 07:58:00,16.9,10.6,30.26,WNW,285,7.7,11.5,76,0.00,CLR,,0.00,WeatherDisplay:10.37,2013-01-04 13:58:00,
2013-01-04 08:03:00,17.2,10.9,30.26,WSW,256,8.6,10.4,76,0.00,CLR,,0.00,WeatherDisplay:10.37,2013-01-04 14:03:00,
2013-01-04 08:08:00,17.2,10.6,30.26,West,263,8.8,12.7,75,0.00,CLR,,0.00,WeatherDisplay:10.37,2013-01-04 14:08:00,
2013-01-04 08:13:00,17.5,10.6,30.26,WNW,298,9.6,11.5,74,0.00,CLR,,0.00,WeatherDisplay:10.37,2013-01-04 14:13:00,
2013-01-04 08:18:00,17.8,11.2,30.26,WSW,251,8.6,18.4,75,0.00,CLR,,0.00,WeatherDisplay:10.37,2013-01-04 14:18:00,
2013-01-04 08:23:00,18.1,11.2,30.26,West,280,8.5,10.4,74,0.00,CLR,,0.00,WeatherDisplay:10.37,2013-01-04 14:23:00,
2013-01-04 08:28:00,18.8,11.9,30.26,WNW,292,7.6,10.4,74,0.00,CLR,,0.00,WeatherDisplay:10.37,2013-01-04 14:28:00,
2013-01-04 08:33:00,19.2,12.0,30.26,WSW,248,9.2,13.0,73,0.00,CLR,,0.00,WeatherDisplay:10.37,2013-01-04 14:33:00,
2013-01-04 08:38:00,20.0,12.7,30.26,WNW,290,8.4,11.5,73,0.00,CLR,,0.00,WeatherDisplay:10.37,2013-01-04 14:38:00,
2013-01-04 08:43:00,20.6,13.3,30.26,WNW,291,11.5,11.5,73,0.00,CLR,,0.00,WeatherDisplay:10.37,2013-01-04 14:43:00,
2013-01-04 08:48:00,21.0,13.4,30.26,WNW,292,8.0,11.5,72,0.00,CLR,,0.00,WeatherDisplay:10.37,2013-01-04 14:48:00,
2013-01-04 08:53:00,21.3,13.7,30.26,West,262,8.5,12.0,72,0.00,CLR,,0.00,WeatherDisplay:10.37,2013-01-04 14:53:00,
2013-01-04 08:58:00,21.4,13.5,30.26,West,281,6.6,9.2,71,0.00,CLR,,0.00,WeatherDisplay:10.37,2013-01-04 14:58:00,
2013-01-04 09:03:00,22.1,14.1,30.26,West,268,10.4,17.3,71,0.00,CLR,,0.00,WeatherDisplay:10.37,2013-01-04 15:03:00,
2013-01-04 09:08:00,22.4,14.1,30.26,WNW,284,12.4,17.3,70,0.00,CLR,,0.00,WeatherDisplay:10.37,2013-01-04 15:08:00,
2013-01-04 09:13:00,22.5,14.2,30.26,West,269,13.9,17.3,70,0.00,CLR,,0.00,WeatherDisplay:10.37,2013-01-04 15:13:00,
2013-01-04 09:18:00,22.9,14.6,30.26,WNW,282,8.1,10.4,70,0.00,CLR,,0.00,WeatherDisplay:10.37,2013-01-04 15:18:00,
2013-01-04 09:23:00,23.0,14.7,30.26,West,277,8.9,11.5,70,0.00,CLR,,0.00,WeatherDisplay:10.37,2013-01-04 15:23:00,
2013-01-04 09:28:00,23.3,15.0,30.26,WNW,301,12.7,15.0,70,0.00,CLR,,0.00,WeatherDisplay:10.37,2013-01-04 15:28:00,
2013-01-04 09:33:00,23.6,14.9,30.27,West,274,12.0,17.3,69,0.00,CLR,,0.00,WeatherDisplay:10.37,2013-01-04 15:33:00,
2013-01-04 09:38:00,23.9,14.9,30.27,WNW,283,14.5,18.4,68,0.00,CLR,,0.00,WeatherDisplay:10.37,2013-01-04 15:38:00,
2013-01-04 09:43:00,24.1,15.4,30.27,WNW,293,8.1,11.5,69,0.00,CLR,,0.00,WeatherDisplay:10.37,2013-01-04 15:43:00,
2013-01-04 09:48:00,24.7,16.0,30.28,West,279,12.7,13.8,69,0.00,CLR,,0.00,WeatherDisplay:10.37,2013-01-04 15:48:00,
2013-01-04 09:53:00,25.1,16.0,30.28,WNW,282,10.2,12.7,68,0.00,CLR,,0.00,WeatherDisplay:10.37,2013-01-04 15:53:00,
2013-01-04 09:58:00,25.6,16.5,30.28,WNW,289,13.2,17.3,68,0.00,CLR,,0.00,WeatherDisplay:10.37,2013-01-04 15:58:00,
2013-01-04 10:03:00,25.7,16.3,30.27,NW,307,10.4,15.0,67,0.00,CLR,,0.00,WeatherDisplay:10.37,2013-01-04 16:03:00,
2013-01-04 10:08:00,26.3,16.8,30.27,NW,307,9.4,11.5,67,0.00,CLR,,0.00,WeatherDisplay:10.37,2013-01-04 16:08:00,
2013-01-04 10:13:00,26.7,16.9,30.27,NW,308,9.8,16.1,66,0.00,CLR,,0.00,WeatherDisplay:10.37,2013-01-04 16:13:00,
2013-01-04 10:18:00,26.9,16.7,30.27,WSW,252,9.6,11.5,65,0.00,CLR,,0.00,WeatherDisplay:10.37,2013-01-04 16:18:00,
2013-01-04 10:23:00,27.2,17.0,30.27,WSW,256,10.9,15.0,65,0.00,CLR,,0.00,WeatherDisplay:10.37,2013-01-04 16:23:00,
2013-01-04 10:28:00,27.5,17.3,30.27,NW,307,12.2,18.4,65,0.00,CLR,,0.00,WeatherDisplay:10.37,2013-01-04 16:28:00,
2013-01-04 10:33:00,27.6,17.4,30.26,West,272,9.9,11.5,65,0.00,CLR,,0.00,WeatherDisplay:10.37,2013-01-04 16:33:00,
2013-01-04 10:38:00,27.9,17.6,30.26,West,269,12.6,13.8,65,0.00,CLR,,0.00,WeatherDisplay:10.37,2013-01-04 16:38:00,
2013-01-04 10:43:00,28.1,17.8,30.26,WNW,302,9.8,16.1,65,0.00,CLR,,0.00,WeatherDisplay:10.37,2013-01-04 16:43:00,
2013-01-04 10:48:00,28.7,18.1,30.25,West,275,11.4,12.7,64,0.00,CLR,,0.00,WeatherDisplay:10.37,2013-01-04 16:48:00,
2013-01-04 10:53:00,29.1,18.4,30.25,NW,309,9.0,9.2,64,0.00,CLR,,0.00,WeatherDisplay:10.37,2013-01-04 16:53:00,
2013-01-04 10:58:00,30.1,18.6,30.25,WSW,258,10.6,12.7,62,0.00,CLR,,0.00,WeatherDisplay:10.37,2013-01-04 16:58:00,
2013-01-04 11:03:00,30.4,18.9,30.24,WNW,291,9.9,11.5,62,0.00,CLR,,0.00,WeatherDisplay:10.37,2013-01-04 17:03:00,
2013-01-04 11:08:00,30.7,19.2,30.24,WNW,286,8.9,12.7,62,0.00,CLR,,0.00,WeatherDisplay:10.37,2013-01-04 17:08:00,
2013-01-04 11:13:00,31.2,18.9,30.24,West,276,7.3,13.8,60,0.00,CLR,,0.00,WeatherDisplay:10.37,2013-01-04 17:13:00,
2013-01-04 11:18:00,31.5,19.2,30.24,NW,309,12.5,13.8,60,0.00,CLR,,0.00,WeatherDisplay:10.37,2013-01-04 17:18:00,
2013-01-04 11:23:00,31.5,19.2,30.24,West,272,10.6,13.8,60,0.00,CLR,,0.00,WeatherDisplay:10.37,2013-01-04 17:23:00,
2013-01-04 11:28:00,31.8,19.5,30.24,West,281,13.2,15.0,60,0.00,CLR,,0.00,WeatherDisplay:10.37,2013-01-04 17:28:00,
2013-01-04 11:33:00,31.9,19.2,30.23,West,275,11.4,13.8,59,0.00,CLR,,0.00,WeatherDisplay:10.37,2013-01-04 17:33:00,
2013-01-04 11:38:00,32.1,19.4,30.23,WNW,286,8.8,15.0,59,0.00,CLR,,0.00,WeatherDisplay:10.37,2013-01-04 17:38:00,
2013-01-04 11:43:00,32.4,19.3,30.23,WNW,284,12.7,16.1,58,0.00,CLR,,0.00,WeatherDisplay:10.37,2013-01-04 17:43:00,
2013-01-04 11:48:00,32.7,19.5,30.23,West,277,11.4,11.5,58,0.00,CLR,,0.00,WeatherDisplay:10.37,2013-01-04 17:48:00,
2013-01-04 11:53:00,32.7,19.1,30.23,NW,304,13.3,17.3,57,0.00,CLR,,0.00,WeatherDisplay:10.37,2013-01-04 17:53:00,
2013-01-04 11:58:00,32.7,19.1,30.23,WNW,285,12.1,17.3,57,0.00,CLR,,0.00,WeatherDisplay:10.37,2013-01-04 17:58:00,
2013-01-04 12:03:00,32.8,19.2,30.23,NW,309,11.3,11.5,57,0.00,CLR,,0.00,WeatherDisplay:10.37,2013-01-04 18:03:00,
2013-01-04 12:08:00,33.2,19.6,30.23,NW,309,10.8,12.7,57,0.00,CLR,,0.00,WeatherDisplay:10.37,2013-01-04 18:08:00,
2013-01-04 12:13:00,33.4,19.4,30.23,West,266,15.0,18.4,56,0.00,CLR,,0.00,WeatherDisplay:10.37,2013-01-04 18:13:00,
2013-01-04 12:18:00,33.4,19.8,30.22,NW,309,9.3,10.4,57,0.00,CLR,,0.00,WeatherDisplay:10.37,2013-01-04 18:18:00,
2013-01-04 12:23:00,33.7,19.7,30.22,West,279,10.8,13.8,56,0.00,CLR,,0.00,WeatherDisplay:10.37,2013-01-04 18:23:00,
2013-01-04 12:28:00,33.8,19.7,30.22,WNW,301,12.5,18.4,56,0.00,CLR,,0.00,WeatherDisplay:10.37,2013-01-04 18:28:00,
2013-01-04 12:33:00,33.7,20.1,30.21,WNW,291,11.5,15.0,57,0.00,CLR,,0.00,WeatherDisplay:10.37,2013-01-04 18:33:00,
2013-01-04 12:38:00,33.5,19.5,30.21,WNW,303,10.6,18.4,56,0.00,CLR,,0.00,WeatherDisplay:10.37,2013-01-04 18:38:00,
2013-01-04 12:43:00,33.8,19.7,30.21,WNW,301,13.2,19.6,56,0.00,CLR,,0.00,WeatherDisplay:10.37,2013-01-04 18:43:00,
2013-01-04 12:48:00,34.0,19.9,30.21,WNW,289,11.6,15.0,56,0.00,CLR,,0.00,WeatherDisplay:10.37,2013-01-04 18:48:00,
2013-01-04 12:53:00,34.1,20.0,30.21,West,264,15.3,16.1,56,0.00,CLR,,0.00,WeatherDisplay:10.37,2013-01-04 18:53:00,
2013-01-04 12:58:00,34.3,19.8,30.21,WNW,282,14.2,17.3,55,0.00,CLR,,0.00,WeatherDisplay:10.37,2013-01-04 18:58:00,
2013-01-04 13:03:00,34.6,20.1,30.20,West,278,8.1,11.5,55,0.00,CLR,,0.00,WeatherDisplay:10.37,2013-01-04 19:03:00,
2013-01-04 13:08:00,35.0,20.0,30.20,NW,307,10.5,18.4,54,0.00,CLR,,0.00,WeatherDisplay:10.37,2013-01-04 19:08:00,
2013-01-04 13:13:00,35.3,20.3,30.20,West,278,12.6,13.8,54,0.00,CLR,,0.00,WeatherDisplay:10.37,2013-01-04 19:13:00,
2013-01-04 13:18:00,35.3,20.3,30.20,West,271,15.9,19.6,54,0.00,CLR,,0.00,WeatherDisplay:10.37,2013-01-04 19:18:00,
2013-01-04 13:23:00,35.5,19.6,30.20,West,273,12.0,15.0,52,0.00,CLR,,0.00,WeatherDisplay:10.37,2013-01-04 19:23:00,
2013-01-04 13:28:00,35.5,19.6,30.20,WNW,296,13.9,19.6,52,0.00,CLR,,0.00,WeatherDisplay:10.37,2013-01-04 19:28:00,
2013-01-04 13:33:00,35.8,19.9,30.19,West,278,13.0,17.3,52,0.00,CLR,,0.00,WeatherDisplay:10.37,2013-01-04 19:33:00,
2013-01-04 13:38:00,35.8,19.9,30.19,WNW,302,12.6,15.0,52,0.00,CLR,,0.00,WeatherDisplay:10.37,2013-01-04 19:38:00,
2013-01-04 13:43:00,35.9,19.5,30.19,West,268,11.3,16.1,51,0.00,CLR,,0.00,WeatherDisplay:10.37,2013-01-04 19:43:00,
2013-01-04 13:48:00,36.2,19.8,30.18,WNW,283,12.0,13.8,51,0.00,CLR,,0.00,WeatherDisplay:10.37,2013-01-04 19:48:00,
2013-01-04 13:53:00,36.0,20.1,30.18,WNW,286,15.8,18.4,52,0.00,CLR,,0.00,WeatherDisplay:10.37,2013-01-04 19:53:00,
2013-01-04 13:58:00,36.2,20.2,30.18,NW,309,4.0,8.1,52,0.00,CLR,,0.00,WeatherDisplay:10.37,2013-01-04 19:58:00,
2013-01-04 14:03:00,36.8,20.8,30.19,NW,310,14.4,16.0,52,0.00,CLR,,0.00,WeatherDisplay:10.37,2013-01-04 20:03:00,
2013-01-04 14:08:00,36.8,19.4,30.19,NW,310,13.2,17.3,49,0.00,CLR,,0.00,WeatherDisplay:10.37,2013-01-04 20:08:00,
2013-01-04 14:13:00,36.6,19.2,30.19,West,270,17.2,19.6,49,0.00,CLR,,0.00,WeatherDisplay:10.37,2013-01-04 20:13:00,
2013-01-04 14:18:00,36.2,19.3,30.18,WNW,302,15.4,18.4,50,0.00,CLR,,0.00,WeatherDisplay:10.37,2013-01-04 20:18:00,
2013-01-04 14:23:00,36.5,20.1,30.18,West,277,11.9,16.1,51,0.00,CLR,,0.00,WeatherDisplay:10.37,2013-01-04 20:23:00,
2013-01-04 14:28:00,36.3,19.9,30.18,NW,307,15.5,19.0,51,0.00,CLR,,0.00,WeatherDisplay:10.37,2013-01-04 20:28:00,
2013-01-04 14:33:00,36.3,19.9,30.19,WNW,287,10.9,11.5,51,0.00,CLR,,0.00,WeatherDisplay:10.37,2013-01-04 20:33:00,
2013-01-04 14:38:00,36.3,19.9,30.19,NW,309,13.9,19.6,51,0.00,CLR,,0.00,WeatherDisplay:10.37,2013-01-04 20:38:00,
2013-01-04 14:43:00,36.2,19.3,30.19,WNW,295,13.9,19.6,50,0.00,CLR,,0.00,WeatherDisplay:10.37,2013-01-04 20:43:00,
2013-01-04 14:48:00,36.2,19.3,30.19,WNW,289,12.0,17.3,50,0.00,CLR,,0.00,WeatherDisplay:10.37,2013-01-04 20:48:00,
2013-01-04 14:53:00,36.0,19.1,30.19,West,269,11.6,16.1,50,0.00,CLR,,0.00,WeatherDisplay:10.37,2013-01-04 20:53:00,
2013-01-04 14:58:00,36.0,19.1,30.19,West,273,12.0,17.3,50,0.00,CLR,,0.00,WeatherDisplay:10.37,2013-01-04 20:58:00,
2013-01-04 15:03:00,35.9,20.0,30.20,WNW,297,11.8,16.1,52,0.00,CLR,,0.00,WeatherDisplay:10.37,2013-01-04 21:03:00,
2013-01-04 15:08:00,36.0,20.1,30.20,West,278,9.8,11.5,52,0.00,CLR,,0.00,WeatherDisplay:10.37,2013-01-04 21:08:00,
2013-01-04 15:13:00,36.2,20.7,30.20,WNW,292,9.4,15.0,53,0.00,CLR,,0.00,WeatherDisplay:10.37,2013-01-04 21:13:00,
2013-01-04 15:18:00,36.0,20.5,30.20,WNW,299,13.0,17.3,53,0.00,CLR,,0.00,WeatherDisplay:10.37,2013-01-04 21:18:00,
2013-01-04 15:23:00,36.0,20.9,30.20,West,279,12.0,16.1,54,0.00,CLR,,0.00,WeatherDisplay:10.37,2013-01-04 21:23:00,
2013-01-04 15:28:00,35.8,20.8,30.20,West,270,12.8,16.1,54,0.00,CLR,,0.00,WeatherDisplay:10.37,2013-01-04 21:28:00,
2013-01-04 15:33:00,35.6,21.0,30.20,WNW,287,7.8,11.5,55,0.00,CLR,,0.00,WeatherDisplay:10.37,2013-01-04 21:33:00,
2013-01-04 15:38:00,35.8,21.2,30.20,West,268,10.5,13.0,55,0.00,CLR,,0.00,WeatherDisplay:10.37,2013-01-04 21:38:00,
2013-01-04 15:43:00,35.5,21.3,30.20,NW,307,10.5,16.1,56,0.00,CLR,,0.00,WeatherDisplay:10.37,2013-01-04 21:43:00,
2013-01-04 15:48:00,35.3,21.6,30.20,West,268,12.8,12.8,57,0.00,CLR,,0.00,WeatherDisplay:10.37,2013-01-04 21:48:00,
2013-01-04 15:53:00,34.9,21.2,30.20,WNW,283,9.9,16.1,57,0.00,CLR,,0.00,WeatherDisplay:10.37,2013-01-04 21:53:00,
2013-01-04 15:58:00,34.7,21.0,30.20,WSW,251,10.2,19.6,57,0.00,CLR,,0.00,WeatherDisplay:10.37,2013-01-04 21:58:00,
2013-01-04 16:03:00,34.6,21.3,30.21,WNW,283,10.1,11.5,58,0.00,CLR,,0.00,WeatherDisplay:10.37,2013-01-04 22:03:00,
2013-01-04 16:08:00,34.6,21.7,30.21,NW,309,13.7,15.0,59,0.00,CLR,,0.00,WeatherDisplay:10.37,2013-01-04 22:08:00,
2013-01-04 16:13:00,34.3,21.4,30.21,West,265,10.4,19.6,59,0.00,CLR,,0.00,WeatherDisplay:10.37,2013-01-04 22:13:00,
2013-01-04 16:18:00,34.1,20.9,30.21,WNW,285,11.2,12.7,58,0.00,CLR,,0.00,WeatherDisplay:10.37,2013-01-04 22:18:00,
2013-01-04 16:23:00,34.0,20.8,30.21,West,274,12.9,13.8,58,0.00,CLR,,0.00,WeatherDisplay:10.37,2013-01-04 22:23:00,
2013-01-04 16:28:00,33.7,20.9,30.21,WNW,284,9.8,13.8,59,0.00,CLR,,0.00,WeatherDisplay:10.37,2013-01-04 22:28:00,
2013-01-04 16:33:00,33.5,21.1,30.21,WNW,291,8.9,12.0,60,0.00,CLR,,0.00,WeatherDisplay:10.37,2013-01-04 22:33:00,
2013-01-04 16:38:00,33.4,21.0,30.21,WNW,289,8.7,11.5,60,0.00,CLR,,0.00,WeatherDisplay:10.37,2013-01-04 22:38:00,
2013-01-04 16:43:00,33.2,20.8,30.21,WNW,282,10.1,11.5,60,0.00,CLR,,0.00,WeatherDisplay:10.37,2013-01-04 22:43:00,
2013-01-04 16:48:00,33.1,21.1,30.22,West,279,13.3,16.1,61,0.00,CLR,,0.00,WeatherDisplay:10.37,2013-01-04 22:48:00,
2013-01-04 16:53:00,32.9,21.3,30.22,WNW,292,10.2,11.5,62,0.00,CLR,,0.00,WeatherDisplay:10.37,2013-01-04 22:53:00,
2013-01-04 16:58:00,32.9,21.3,30.22,WNW,285,10.9,11.5,62,0.00,CLR,,0.00,WeatherDisplay:10.37,2013-01-04 22:58:00,
2013-01-04 17:03:00,32.8,21.2,30.22,WNW,296,7.5,9.2,62,0.00,CLR,,0.00,WeatherDisplay:10.37,2013-01-04 23:03:00,
2013-01-04 17:08:00,32.7,21.5,30.22,WNW,288,5.1,8.1,63,0.00,CLR,,0.00,WeatherDisplay:10.37,2013-01-04 23:08:00,
2013-01-04 17:13:00,32.5,21.3,30.22,NW,305,4.3,7.0,63,0.00,CLR,,0.00,WeatherDisplay:10.37,2013-01-04 23:13:00,
2013-01-04 17:18:00,32.2,21.0,30.23,WNW,298,4.0,5.0,63,0.00,CLR,,0.00,WeatherDisplay:10.37,2013-01-04 23:18:00,
2013-01-04 17:23:00,32.1,21.3,30.23,West,279,5.6,6.9,64,0.00,CLR,,0.00,WeatherDisplay:10.37,2013-01-04 23:23:00,
2013-01-04 17:28:00,32.1,21.3,30.23,West,263,6.9,10.4,64,0.00,CLR,,0.00,WeatherDisplay:10.37,2013-01-04 23:28:00,
2013-01-04 17:33:00,32.1,21.3,30.23,WNW,293,6.4,10.4,64,0.00,CLR,,0.00,WeatherDisplay:10.37,2013-01-04 23:33:00,
2013-01-04 17:38:00,32.1,21.7,30.23,WNW,301,3.2,5.8,65,0.00,CLR,,0.00,WeatherDisplay:10.37,2013-01-04 23:38:00,
2013-01-04 17:43:00,31.8,21.4,30.23,West,279,5.5,6.9,65,0.00,CLR,,0.00,WeatherDisplay:10.37,2013-01-04 23:43:00,
2013-01-04 17:48:00,31.8,21.4,30.23,WNW,282,5.2,6.9,65,0.00,CLR,,0.00,WeatherDisplay:10.37,2013-01-04 23:48:00,
2013-01-04 17:53:00,31.5,21.1,30.23,WNW,291,4.4,5.8,65,0.00,CLR,,0.00,WeatherDisplay:10.37,2013-01-04 23:53:00,
2013-01-04 17:58:00,31.5,21.4,30.23,West,272,5.0,7.0,66,0.00,CLR,,0.00,WeatherDisplay:10.37,2013-01-04 23:58:00,
2013-01-04 18:03:00,31.5,21.4,30.23,NW,307,4.6,9.0,66,0.00,CLR,,0.00,WeatherDisplay:10.37,2013-01-05 00:03:00,
2013-01-04 18:08:00,31.3,20.9,30.23,West,265,6.0,6.0,65,0.00,CLR,,0.00,WeatherDisplay:10.37,2013-01-05 00:08:00,
2013-01-04 18:13:00,31.0,21.0,30.23,WNW,282,4.0,4.6,66,0.00,CLR,,0.00,WeatherDisplay:10.37,2013-01-05 00:13:00,
2013-01-04 18:18:00,30.9,20.9,30.24,West,272,5.9,9.2,66,0.00,CLR,,0.00,WeatherDisplay:10.37,2013-01-05 00:18:00,
2013-01-04 18:23:00,30.7,20.7,30.24,West,270,1.3,3.5,66,0.00,CLR,,0.00,WeatherDisplay:10.37,2013-01-05 00:23:00,
2013-01-04 18:28:00,30.7,20.7,30.24,West,277,5.2,5.2,66,0.00,CLR,,0.00,WeatherDisplay:10.37,2013-01-05 00:28:00,
2013-01-04 18:33:00,30.6,20.6,30.24,WNW,286,5.0,6.9,66,0.00,CLR,,0.00,WeatherDisplay:10.37,2013-01-05 00:33:00,
2013-01-04 18:38:00,30.6,20.6,30.24,WNW,293,4.2,5.8,66,0.00,CLR,,0.00,WeatherDisplay:10.37,2013-01-05 00:38:00,
2013-01-04 18:43:00,30.6,20.6,30.24,West,278,5.0,5.8,66,0.00,CLR,,0.00,WeatherDisplay:10.37,2013-01-05 00:43:00,
2013-01-04 18:48:00,30.6,20.6,30.24,West,268,4.4,10.4,66,0.00,CLR,,0.00,WeatherDisplay:10.37,2013-01-05 00:48:00,
2013-01-04 18:53:00,30.4,20.4,30.24,West,278,4.9,10.4,66,0.00,CLR,,0.00,WeatherDisplay:10.37,2013-01-05 00:53:00,
2013-01-04 18:58:00,30.4,20.4,30.24,West,270,5.3,10.4,66,0.00,CLR,,0.00,WeatherDisplay:10.37,2013-01-05 00:58:00,
2013-01-04 19:03:00,30.4,20.7,30.25,West,280,3.5,5.0,67,0.00,CLR,,0.00,WeatherDisplay:10.37,2013-01-05 01:03:00,
2013-01-04 19:08:00,30.3,20.6,30.25,West,274,4.0,5.8,67,0.00,CLR,,0.00,WeatherDisplay:10.37,2013-01-05 01:08:00,
2013-01-04 19:13:00,30.1,20.5,30.25,WNW,289,5.4,5.8,67,0.00,CLR,,0.00,WeatherDisplay:10.37,2013-01-05 01:13:00,
2013-01-04 19:18:00,30.1,20.5,30.24,West,277,7.3,9.2,67,0.00,CLR,,0.00,WeatherDisplay:10.37,2013-01-05 01:18:00,
2013-01-04 19:23:00,30.1,20.5,30.24,WNW,287,5.1,5.8,67,0.00,CLR,,0.00,WeatherDisplay:10.37,2013-01-05 01:23:00,
2013-01-04 19:28:00,30.1,20.5,30.24,WNW,288,5.4,6.9,67,0.00,CLR,,0.00,WeatherDisplay:10.37,2013-01-05 01:28:00,
2013-01-04 19:33:00,30.0,20.7,30.24,WNW,298,3.1,5.8,68,0.00,CLR,,0.00,WeatherDisplay:10.37,2013-01-05 01:33:00,
2013-01-04 19:38:00,30.0,20.7,30.24,WNW,298,0.2,0.0,68,0.00,CLR,,0.00,WeatherDisplay:10.37,2013-01-05 01:38:00,
2013-01-04 19:43:00,30.0,21.1,30.24,WNW,298,0.1,1.2,69,0.00,CLR,,0.00,WeatherDisplay:10.37,2013-01-05 01:43:00,
2013-01-04 19:48:00,29.8,20.9,30.24,WNW,296,3.4,4.6,69,0.00,CLR,,0.00,WeatherDisplay:10.37,2013-01-05 01:48:00,
2013-01-04 19:53:00,29.7,20.8,30.24,WNW,284,4.3,5.8,69,0.00,CLR,,0.00,WeatherDisplay:10.37,2013-01-05 01:53:00,
2013-01-04 19:58:00,29.7,20.8,30.24,West,265,5.6,6.9,69,0.00,CLR,,0.00,WeatherDisplay:10.37,2013-01-05 01:58:00,
2013-01-04 20:03:00,29.7,20.8,30.24,West,270,6.0,9.2,69,0.00,CLR,,0.00,WeatherDisplay:10.37,2013-01-05 02:03:00,
2013-01-04 20:08:00,29.7,20.8,30.24,WNW,284,6.5,8.1,69,0.00,CLR,,0.00,WeatherDisplay:10.37,2013-01-05 02:08:00,
2013-01-04 20:13:00,29.7,20.8,30.24,West,274,6.5,7.0,69,0.00,CLR,,0.00,WeatherDisplay:10.37,2013-01-05 02:13:00,
2013-01-04 20:18:00,29.7,20.8,30.24,WNW,284,5.2,6.9,69,0.00,CLR,,0.00,WeatherDisplay:10.37,2013-01-05 02:18:00,
2013-01-04 20:23:00,29.5,20.6,30.24,West,281,5.4,6.9,69,0.00,CLR,,0.00,WeatherDisplay:10.37,2013-01-05 02:23:00,
2013-01-04 20:28:00,29.5,20.6,30.24,WNW,294,7.2,10.4,69,0.00,CLR,,0.00,WeatherDisplay:10.37,2013-01-05 02:28:00,
2013-01-04 20:33:00,29.5,20.9,30.24,WNW,288,5.5,6.9,70,0.00,CLR,,0.00,WeatherDisplay:10.37,2013-01-05 02:33:00,
2013-01-04 20:38:00,29.5,20.9,30.24,West,279,5.7,8.1,70,0.00,CLR,,0.00,WeatherDisplay:10.37,2013-01-05 02:38:00,
2013-01-04 20:43:00,29.5,20.9,30.24,WNW,282,7.0,7.0,70,0.00,CLR,,0.00,WeatherDisplay:10.37,2013-01-05 02:43:00,
2013-01-04 20:48:00,29.5,20.9,30.24,WNW,282,6.9,9.2,70,0.00,CLR,,0.00,WeatherDisplay:10.37,2013-01-05 02:48:00,
2013-01-04 20:53:00,29.5,20.9,30.24,West,279,5.2,10.4,70,0.00,CLR,,0.00,WeatherDisplay:10.37,2013-01-05 02:53:00,
2013-01-04 20:58:00,29.5,20.9,30.24,WNW,285,6.0,6.9,70,0.00,CLR,,0.00,WeatherDisplay:10.37,2013-01-05 02:58:00,
2013-01-04 21:03:00,29.5,20.9,30.24,WNW,291,4.5,6.0,70,0.00,CLR,,0.00,WeatherDisplay:10.37,2013-01-05 03:03:00,
2013-01-04 21:08:00,29.5,20.9,30.24,WNW,292,4.5,6.9,70,0.00,CLR,,0.00,WeatherDisplay:10.37,2013-01-05 03:08:00,
2013-01-04 21:13:00,29.5,20.9,30.24,West,268,6.3,6.9,70,0.00,CLR,,0.00,WeatherDisplay:10.37,2013-01-05 03:13:00,
2013-01-04 21:18:00,29.7,21.4,30.24,WNW,291,3.2,3.5,71,0.00,CLR,,0.00,WeatherDisplay:10.37,2013-01-05 03:18:00,
2013-01-04 21:23:00,29.8,21.5,30.24,NW,309,7.3,8.1,71,0.00,CLR,,0.00,WeatherDisplay:10.37,2013-01-05 03:23:00,
2013-01-04 21:28:00,30.0,21.7,30.24,WNW,299,4.3,9.2,71,0.00,CLR,,0.00,WeatherDisplay:10.37,2013-01-05 03:28:00,
2013-01-04 21:33:00,30.1,21.8,30.24,WNW,300,7.9,11.5,71,0.00,CLR,,0.00,WeatherDisplay:10.37,2013-01-05 03:33:00,
2013-01-04 21:38:00,30.3,21.7,30.24,NW,307,8.2,8.2,70,0.00,CLR,,0.00,WeatherDisplay:10.37,2013-01-05 03:38:00,
2013-01-04 21:43:00,30.4,21.8,30.24,NW,308,9.4,12.7,70,0.00,CLR,,0.00,WeatherDisplay:10.37,2013-01-05 03:43:00,
2013-01-04 21:48:00,30.4,21.8,30.24,WNW,296,9.1,11.5,70,0.00,CLR,,0.00,WeatherDisplay:10.37,2013-01-05 03:48:00,
2013-01-04 21:53:00,30.4,21.8,30.24,WNW,294,5.2,6.9,70,0.00,CLR,,0.00,WeatherDisplay:10.37,2013-01-05 03:53:00,
2013-01-04 21:58:00,30.3,21.7,30.24,WNW,293,8.0,8.1,70,0.00,CLR,,0.00,WeatherDisplay:10.37,2013-01-05 03:58:00,
2013-01-04 22:03:00,30.3,21.7,30.24,West,260,6.2,10.4,70,0.00,CLR,,0.00,WeatherDisplay:10.37,2013-01-05 04:03:00,
2013-01-04 22:08:00,30.4,21.8,30.24,West,275,5.7,5.8,70,0.00,CLR,,0.00,WeatherDisplay:10.37,2013-01-05 04:08:00,
2013-01-04 22:13:00,30.4,21.8,30.24,WNW,296,10.5,11.5,70,0.00,CLR,,0.00,WeatherDisplay:10.37,2013-01-05 04:13:00,
2013-01-04 22:18:00,30.3,21.7,30.23,WNW,294,6.4,9.2,70,0.00,CLR,,0.00,WeatherDisplay:10.37,2013-01-05 04:18:00,
2013-01-04 22:23:00,30.3,21.7,30.23,WNW,289,6.1,11.5,70,0.00,CLR,,0.00,WeatherDisplay:10.37,2013-01-05 04:23:00,
2013-01-04 22:28:00,30.3,21.7,30.23,West,276,9.5,11.5,70,0.00,CLR,,0.00,WeatherDisplay:10.37,2013-01-05 04:28:00,
2013-01-04 22:33:00,30.3,21.7,30.24,WSW,243,5.5,8.1,70,0.00,CLR,,0.00,WeatherDisplay:10.37,2013-01-05 04:33:00,
2013-01-04 22:38:00,30.1,21.5,30.24,West,265,2.8,10.4,70,0.00,CLR,,0.00,WeatherDisplay:10.37,2013-01-05 04:38:00,
2013-01-04 22:43:00,29.8,21.5,30.24,WNW,282,5.1,6.9,71,0.00,CLR,,0.00,WeatherDisplay:10.37,2013-01-05 04:43:00,
2013-01-04 22:48:00,29.7,21.4,30.24,West,278,4.7,8.1,71,0.00,CLR,,0.00,WeatherDisplay:10.37,2013-01-05 04:48:00,
2013-01-04 22:54:00,29.5,21.3,30.24,West,280,4.1,5.8,71,0.00,CLR,,0.00,WeatherDisplay:10.37,2013-01-05 04:54:00,
2013-01-04 22:59:00,29.5,21.3,30.24,West,279,1.7,3.5,71,0.00,CLR,,0.00,WeatherDisplay:10.37,2013-01-05 04:59:00,
2013-01-04 23:00:00,29.4,21.2,30.24,West,279,1.6,3.5,71,0.00,CLR,,0.00,WeatherDisplay:10.37,2013-01-05 05:00:00,
2013-01-04 23:01:00,29.4,21.2,30.24,West,279,2.7,3.5,71,0.00,CLR,,0.00,WeatherDisplay:10.37,2013-01-05 05:01:00,
2013-01-04 23:06:00,29.4,21.2,30.23,West,279,4.5,5.0,71,0.00,CLR,,0.00,WeatherDisplay:10.37,2013-01-05 05:06:00,
2013-01-04 23:11:00,29.3,21.1,30.23,West,279,6.3,8.1,71,0.00,CLR,,0.00,WeatherDisplay:10.37,2013-01-05 05:11:00,
2013-01-04 23:16:00,29.1,21.2,30.23,West,277,4.2,5.8,72,0.00,CLR,,0.00,WeatherDisplay:10.37,2013-01-05 05:16:00,
2013-01-04 23:21:00,29.1,21.2,30.22,West,275,3.5,5.0,72,0.00,CLR,,0.00,WeatherDisplay:10.37,2013-01-05 05:21:00,
2013-01-04 23:26:00,29.0,21.1,30.22,West,272,1.0,5.0,72,0.00,CLR,,0.00,WeatherDisplay:10.37,2013-01-05 05:26:00,
2013-01-04 23:31:00,28.5,20.6,30.22,West,272,0.0,0.0,72,0.00,CLR,,0.00,WeatherDisplay:10.37,2013-01-05 05:31:00,
2013-01-04 23:36:00,28.1,20.2,30.22,West,269,2.1,3.5,72,0.00,CLR,,0.00,WeatherDisplay:10.37,2013-01-05 05:36:00,
2013-01-04 23:41:00,27.9,20.0,30.22,West,275,5.9,6.9,72,0.00,CLR,,0.00,WeatherDisplay:10.37,2013-01-05 05:41:00,
2013-01-04 23:46:00,27.8,20.3,30.22,West,268,4.5,4.6,73,0.00,CLR,,0.00,WeatherDisplay:10.37,2013-01-05 05:46:00,
2013-01-04 23:51:00,27.8,20.3,30.23,West,263,4.0,5.8,73,0.00,CLR,,0.00,WeatherDisplay:10.37,2013-01-05 05:51:00,
2013-01-04 23:56:00,27.6,20.1,30.23,West,276,6.1,6.9,73,0.00,CLR,,0.00,WeatherDisplay:10.37,2013-01-05 05:56:00,